Date String (YYYY-MM-DD hh:mm:ss) UTC,Instrument flags,absolute air pressure of the measurement (hPa),sample flow rate (lpm),inlet stack bypass flow (lpm),air temperature of the measurement (°C),ambient temperature measured by the external sensor (°C),aerosol sample conditioner tube jacket temperature (°C),OPC LED temperature (°C),internal box temperature (°C),relative humidity of the measurement (%),span deviation,mass concentration of particles derived from Lorenz-Mie calculation of OPC scattering (μg/m³),mass concentration of particles derived from Lorenz-Mie calculation of OPC scattering (μg/m³),mass concentration of particles derived from Lorenz-Mie calculation of OPC scattering (μg/m³)
DateTimeUTC,F1_M11,P_M11,Q1_M11,Q2_M11,T1_M11,T2_M11,T3_M11,T4_M11,T5_M11,U1_M11,ZSPAN_M11,X2_M11,X0_M11,X1_M11
2023-10-31 19:00:00,SystemResetWarning,0836.2,5.01,000.00,024.2,023.4,000.0,032.4,025.6,11.8,0004.2,0006.26,0009.69,0005.83
2023-10-31 19:01:00,SystemResetWarning,0836.2,4.99,000.00,024.2,023.4,000.0,032.4,025.7,11.7,0005.1,0006.29,0010.27,0005.87
2023-10-31 19:02:00,SystemResetWarning,0836.2,4.99,000.00,024.2,023.5,000.0,032.4,025.7,11.9,0005.2,0006.36,0010.55,0005.91
2023-10-31 19:03:00,SystemResetWarning,0836.2,5.00,000.00,024.2,023.5,000.0,032.4,025.7,11.6,0005.0,0006.43,0010.87,0005.94
2023-10-31 19:04:00,SystemResetWarning,0836.2,5.00,000.00,024.2,023.5,000.0,032.4,025.7,11.6,0004.7,0006.46,0010.94,0005.96
2023-10-31 19:05:00,SystemResetWarning,0836.2,5.00,000.00,024.2,023.5,000.0,032.4,025.6,11.8,0004.4,0006.52,0010.99,0006.00
2023-10-31 19:06:00,SystemResetWarning,0836.2,5.00,000.00,024.2,023.5,000.0,032.5,025.7,11.8,0004.5,0006.54,0010.97,0006.02
2023-10-31 19:07:00,SystemResetWarning,0836.1,5.00,000.00,024.2,023.5,000.0,032.5,025.7,11.8,0005.0,0006.55,0011.13,0006.05
2023-10-31 19:08:00,SystemResetWarning,0836.1,4.99,000.00,024.2,023.5,000.0,032.5,025.7,11.9,0005.0,0006.56,0011.36,0006.07
2023-10-31 19:09:00,SystemResetWarning,0836.1,5.00,000.00,024.2,022.1,000.0,032.0,025.7,12.0,0004.3,0006.53,0011.18,0006.08
2023-10-31 19:10:00,SystemResetWarning,0836.1,5.00,000.00,024.2,023.5,000.0,032.5,025.7,11.8,0002.6,0006.51,0011.12,0006.08
2023-10-31 19:11:00,SystemResetWarning,0836.1,5.00,000.00,024.2,023.5,000.0,032.5,025.7,11.6,0002.0,0006.51,0011.55,0006.10
2023-10-31 19:12:00,SystemResetWarning,0836.1,5.00,000.00,024.3,023.5,000.0,032.5,025.7,11.7,0001.5,0006.53,0011.39,0006.11
2023-10-31 19:13:00,SystemResetWarning,0836.0,5.00,000.00,024.3,023.5,000.0,032.5,025.7,11.7,0001.2,0006.53,0011.65,0006.10
2023-10-31 19:14:00,SystemResetWarning,0836.1,5.00,000.00,024.3,023.5,000.0,032.5,025.7,11.7,0000.7,0006.53,0011.65,0006.11
2023-10-31 19:15:00,SystemResetWarning,0836.1,5.00,000.00,024.3,023.5,000.0,032.6,025.8,11.5,0000.5,0006.54,0011.57,0006.12
2023-10-31 19:16:00,SystemResetWarning,0836.1,5.00,000.00,024.3,023.5,000.0,032.6,025.9,11.6,-000.3,0006.54,0011.59,0006.14
2023-10-31 19:17:00,SystemResetWarning,0836.1,5.00,000.00,024.3,023.5,000.0,032.6,025.8,11.4,-000.3,0006.53,0011.83,0006.14
2023-10-31 19:18:00,SystemResetWarning,0836.1,5.00,000.00,024.3,023.5,000.0,032.6,025.8,11.7,0000.3,0006.54,0012.32,0006.13
2023-10-31 19:19:00,SystemResetWarning,0836.1,5.00,000.00,024.3,023.5,000.0,032.6,025.8,11.5,0000.6,0006.54,0011.98,0006.13
2023-10-31 19:20:00,SystemResetWarning,0836.1,5.00,000.00,024.3,023.5,000.0,032.6,025.7,11.5,0000.7,0006.61,0012.22,0006.16
2023-10-31 19:21:00,SystemResetWarning,0836.1,5.00,000.00,024.3,023.5,000.0,032.6,025.8,11.6,0001.5,0006.66,0012.28,0006.20
2023-10-31 19:22:00,SystemResetWarning,0836.1,5.00,000.00,024.3,023.6,000.0,032.6,025.8,11.6,0000.9,0006.69,0011.99,0006.22
2023-10-31 19:23:00,SystemResetWarning,0836.1,5.00,000.00,024.4,023.6,000.0,032.6,025.8,11.7,0001.2,0006.71,0012.42,0006.23
2023-10-31 19:24:00,SystemResetWarning,0836.1,5.00,000.00,024.4,023.6,000.0,032.6,025.8,11.8,0000.8,0006.72,0011.97,0006.26
2023-10-31 19:25:00,SystemResetWarning,0836.1,5.00,000.00,024.4,023.6,000.0,032.6,025.9,11.7,0000.1,0006.73,0011.66,0006.28
2023-10-31 19:26:00,SystemResetWarning,0836.1,5.01,000.00,024.4,023.6,000.0,032.7,025.9,12.0,0000.5,0006.73,0011.62,0006.29
2023-10-31 19:27:00,SystemResetWarning,0836.1,5.00,000.00,024.4,023.6,000.0,032.7,025.9,11.8,0000.7,0006.73,0011.61,0006.30
2023-10-31 19:28:00,SystemResetWarning,0836.0,5.01,000.00,024.4,023.6,000.0,032.7,025.8,11.7,0000.7,0006.78,0011.51,0006.33
2023-10-31 19:29:00,SystemResetWarning,0835.9,5.00,000.00,024.4,023.6,000.0,032.7,025.8,11.6,0000.8,0006.81,0011.02,0006.36
2023-10-31 19:30:00,SystemResetWarning,0835.9,4.99,000.00,024.4,023.6,000.0,032.7,025.9,11.8,0000.6,0006.85,0011.37,0006.39
2023-10-31 19:31:00,SystemResetWarning,0835.9,5.00,000.00,024.4,023.6,000.0,032.7,025.9,11.6,0001.1,0006.84,0011.52,0006.38
2023-10-31 19:32:00,SystemResetWarning,0835.9,4.99,000.00,024.4,023.6,000.0,032.7,025.9,11.8,0001.3,0006.84,0011.95,0006.37
2023-10-31 19:33:00,SystemResetWarning,0835.9,5.00,000.00,024.4,023.6,000.0,032.7,025.9,11.5,0000.8,0006.84,0011.96,0006.39
2023-10-31 19:34:00,SystemResetWarning,0835.9,5.00,000.00,024.4,023.6,000.0,032.7,025.9,11.5,0000.5,0006.86,0011.37,0006.40
2023-10-31 19:35:00,SystemResetWarning,0835.9,5.00,000.00,024.4,023.6,000.0,032.7,025.9,11.6,0000.7,0006.90,0011.88,0006.43
2023-10-31 19:36:00,SystemResetWarning,0835.9,5.00,000.00,024.4,023.6,000.0,032.7,025.9,11.4,0001.3,0006.89,0011.93,0006.44
2023-10-31 19:37:00,SystemResetWarning,0835.9,5.00,000.00,024.5,023.6,000.0,032.7,025.9,11.4,0001.3,0006.91,0011.98,0006.45
2023-10-31 19:38:00,SystemResetWarning,0835.9,5.00,000.00,024.5,023.6,000.0,032.7,025.9,11.8,0001.2,0006.95,0012.46,0006.47
2023-10-31 19:39:00,SystemResetWarning,0835.9,5.00,000.00,024.5,023.6,000.0,032.8,025.9,11.8,0001.5,0006.97,0012.53,0006.49
2023-10-31 19:40:00,SystemResetWarning,0835.8,5.00,000.00,024.5,023.7,000.0,032.8,026.0,11.5,0002.0,0007.00,0012.78,0006.51
2023-10-31 19:41:00,SystemResetWarning,0835.8,5.00,000.00,024.5,023.7,000.0,032.8,025.9,11.3,0001.7,0007.02,0012.82,0006.53
2023-10-31 19:42:00,SystemResetWarning,0835.8,5.00,000.00,024.5,023.7,000.0,032.8,026.0,12.0,0001.5,0007.01,0012.46,0006.55
2023-10-31 19:43:00,SystemResetWarning,0835.8,5.00,000.00,024.5,023.7,000.0,032.8,026.0,11.6,0001.3,0007.02,0012.05,0006.58
2023-10-31 19:44:00,SystemResetWarning,0835.9,4.99,000.00,024.5,023.7,000.0,032.8,026.0,11.6,0001.7,0007.05,0012.16,0006.59
2023-10-31 19:45:00,SystemResetWarning,0835.8,4.99,000.00,024.6,023.7,000.0,032.8,026.0,12.0,0001.9,0007.06,0012.16,0006.60
2023-10-31 19:46:00,SystemResetWarning,0835.9,5.00,000.00,024.6,023.8,000.0,032.8,026.0,11.1,0002.1,0007.07,0011.63,0006.61
2023-10-31 19:47:00,SystemResetWarning,0835.9,5.01,000.00,024.6,023.8,000.0,032.8,026.0,11.1,0001.5,0007.11,0011.55,0006.62
2023-10-31 19:48:00,SystemResetWarning,0835.8,5.01,000.00,024.6,023.8,000.0,032.8,026.0,11.0,0001.6,0007.16,0011.66,0006.65
2023-10-31 19:49:00,SystemResetWarning,0835.8,5.00,000.00,024.6,023.8,000.0,032.9,026.1,11.1,0002.3,0007.16,0011.20,0006.67
2023-10-31 19:50:00,SystemResetWarning,0835.8,4.98,000.00,024.6,023.8,000.0,032.9,026.1,11.2,0002.8,0007.18,0011.28,0006.69
2023-10-31 19:51:00,SystemResetWarning,0835.8,5.00,000.00,024.6,023.8,000.0,032.9,026.1,11.1,0002.0,0007.16,0011.07,0006.70
2023-10-31 19:52:00,SystemResetWarning,0835.8,5.01,000.00,024.6,023.8,000.0,032.9,026.1,11.4,0001.9,0007.17,0011.05,0006.71
2023-10-31 19:53:00,SystemResetWarning,0835.8,5.01,000.00,024.6,023.8,000.0,032.9,026.2,11.4,0001.6,0007.17,0011.11,0006.70
2023-10-31 19:54:00,SystemResetWarning,0835.8,5.00,000.00,024.7,023.9,000.0,032.9,026.2,10.9,0001.9,0007.19,0010.91,0006.71
2023-10-31 19:55:00,SystemResetWarning,0835.8,4.99,000.00,024.7,023.9,000.0,032.9,026.2,11.0,0002.7,0007.17,0010.72,0006.72
2023-10-31 19:56:00,SystemResetWarning,0835.7,4.99,000.00,024.7,023.9,000.0,032.9,026.2,10.8,0003.1,0007.19,0011.43,0006.73
2023-10-31 19:57:00,SystemResetWarning,0835.7,5.01,000.00,024.7,023.9,000.0,032.9,026.2,11.2,0002.6,0007.22,0011.76,0006.75
2023-10-31 19:58:00,SystemResetWarning,0835.7,5.01,000.00,024.7,023.9,000.0,033.0,026.3,11.2,0002.7,0007.25,0012.37,0006.77
2023-10-31 19:59:00,SystemResetWarning,0835.6,5.00,000.00,024.7,023.9,000.0,033.0,026.3,11.1,0002.7,0007.26,0012.34,0006.80
